| time (UTC) | temp C | wind direction | speed KPH | gust KPH | rain 1hr cm | rain 24hr cm | rain mn cm | humidity % | barometer mb |
| 20260507134618 | 3 | 195 | 3.2 | 4.8 | 0.00 | 0.00 | 0.00 | 65 | 1010.1 |
| 20260507133718 | 2 | 182 | 1.6 | 6.4 | 0.00 | 0.00 | 0.00 | 66 | 1010.1 |
| 20260507132818 | 2 | 143 | 0.0 | 3.2 | 0.00 | 0.00 | 0.00 | 65 | 1010.1 |
| 20260507131918 | 2 | 130 | 0.0 | 1.6 | 0.00 | 0.00 | 0.00 | 66 | 1010.0 |
| 20260507131018 | 1 | 130 | 0.0 | 3.2 | 0.00 | 0.00 | 0.00 | 68 | 1009.9 |
| 20260507130118 | 0 | 108 | 0.0 | 3.2 | 0.00 | 0.00 | 0.00 | 72 | 1009.9 |
| 20260507125518 | 0 | 122 | 1.6 | 3.2 | 0.00 | 0.00 | 0.00 | 73 | 1009.8 |
| 20260507124618 | -1 | 99 | 1.6 | 3.2 | 0.00 | 0.00 | 0.00 | 74 | 1009.7 |
| 20260507123718 | -1 | 0 | 0.0 | 0.0 | 0.00 | 0.00 | 0.00 | 74 | 1009.6 |
| 20260507122818 | -1 | 0 | 0.0 | 4.8 | 0.00 | 0.00 | 0.00 | 73 | 1009.6 |
| 20260507121918 | -1 | 4 | 1.6 | 4.8 | 0.00 | 0.00 | 0.00 | 73 | 1009.6 |
| 20260507121039 | -1 | 13 | 4.8 | 6.4 | 0.00 | 0.00 | 0.00 | 73 | 1009.5 |
| 20260507120118 | -2 | 25 | 4.8 | 4.8 | 0.00 | 0.00 | 0.00 | 73 | 1009.3 |
| 20260507115539 | -2 | 4 | 4.8 | 4.8 | 0.00 | 0.00 | 0.00 | 72 | 1009.3 |
| 20260507114618 | -2 | 8 | 4.8 | 4.8 | 0.00 | 0.00 | 0.00 | 71 | 1009.2 |
| 20260507113739 | -1 | 14 | 3.2 | 4.8 | 0.00 | 0.00 | 0.00 | 71 | 1009.2 |
| 20260507112839 | -1 | 79 | 3.2 | 4.8 | 0.00 | 0.00 | 0.00 | 71 | 1009.2 |
| 20260507111918 | -1 | 80 | 3.2 | 4.8 | 0.00 | 0.00 | 0.00 | 71 | 1009.3 |
| 20260507111018 | -1 | 79 | 3.2 | 4.8 | 0.00 | 0.00 | 0.00 | 70 | 1009.2 |
| 20260507110118 | -1 | 71 | 3.2 | 4.8 | 0.00 | 0.00 | 0.00 | 70 | 1009.2 |
| 20260507105518 | -1 | 62 | 3.2 | 4.8 | 0.00 | 0.00 | 0.00 | 70 | 1009.2 |
| 20260507104618 | -1 | 80 | 3.2 | 4.8 | 0.00 | 0.00 | 0.00 | 71 | 1009.3 |
| 20260507103718 | -1 | 80 | 3.2 | 4.8 | 0.00 | 0.00 | 0.00 | 70 | 1009.4 |
| 20260507102839 | -1 | 81 | 4.8 | 6.4 | 0.00 | 0.00 | 0.00 | 70 | 1009.3 |
| 20260507101918 | -1 | 75 | 4.8 | 6.4 | 0.00 | 0.00 | 0.00 | 70 | 1009.4 |
| 20260507101018 | -1 | 79 | 4.8 | 6.4 | 0.00 | 0.00 | 0.00 | 70 | 1009.5 |
| 20260507100118 | -1 | 74 | 4.8 | 6.4 | 0.00 | 0.00 | 0.00 | 69 | 1009.6 |
| 20260507095539 | -1 | 50 | 4.8 | 6.4 | 0.00 | 0.00 | 0.00 | 69 | 1009.5 |
| 20260507094618 | -1 | 1 | 4.8 | 6.4 | 0.00 | 0.00 | 0.00 | 68 | 1009.6 |
| 20260507093718 | -1 | 23 | 4.8 | 6.4 | 0.00 | 0.00 | 0.00 | 69 | 1009.6 |
| 20260507092818 | -1 | 89 | 4.8 | 6.4 | 0.00 | 0.00 | 0.00 | 67 | 1009.5 |
| 20260507091939 | -1 | 91 | 4.8 | 6.4 | 0.00 | 0.00 | 0.00 | 67 | 1009.5 |
| 20260507091018 | -1 | 35 | 4.8 | 6.4 | 0.00 | 0.00 | 0.00 | 67 | 1009.6 |
| 20260507090118 | 0 | 42 | 4.8 | 6.4 | 0.00 | 0.00 | 0.00 | 66 | 1009.6 |
| 20260507085517 | 0 | 96 | 4.8 | 6.4 | 0.00 | 0.00 | 0.00 | 66 | 1009.5 |
| 20260507084618 | 0 | 16 | 3.2 | 6.4 | 0.00 | 0.00 | 0.00 | 66 | 1009.5 |
| 20260507083718 | 0 | 1 | 3.2 | 4.8 | 0.00 | 0.00 | 0.00 | 66 | 1009.5 |
| 20260507082817 | 0 | 53 | 4.8 | 4.8 | 0.00 | 0.00 | 0.00 | 66 | 1009.5 |
| 20260507081917 | 0 | 99 | 3.2 | 4.8 | 0.00 | 0.00 | 0.00 | 67 | 1009.5 |
| 20260507081039 | 0 | 45 | 3.2 | 4.8 | 0.00 | 0.00 | 0.00 | 67 | 1009.5 |
| 20260507080117 | -1 | 1 | 3.2 | 4.8 | 0.00 | 0.00 | 0.00 | 68 | 1009.4 |
| 20260507075518 | -1 | 6 | 3.2 | 4.8 | 0.00 | 0.00 | 0.00 | 68 | 1009.4 |
| 20260507074638 | -1 | 58 | 3.2 | 9.7 | 0.00 | 0.00 | 0.00 | 67 | 1009.4 |
| 20260507073717 | -1 | 96 | 6.4 | 9.7 | 0.00 | 0.00 | 0.00 | 67 | 1009.5 |
| 20260507072818 | -1 | 99 | 6.4 | 9.7 | 0.00 | 0.00 | 0.00 | 67 | 1009.5 |
| 20260507071917 | 0 | 98 | 6.4 | 9.7 | 0.00 | 0.00 | 0.00 | 65 | 1009.5 |
| 20260507071038 | 0 | 96 | 6.4 | 9.7 | 0.00 | 0.00 | 0.00 | 64 | 1009.5 |
| 20260507070117 | 0 | 94 | 4.8 | 11.3 | 0.00 | 0.00 | 0.00 | 63 | 1009.5 |
| 20260507065517 | 0 | 100 | 6.4 | 11.3 | 0.00 | 0.00 | 0.00 | 62 | 1009.6 |
| 20260507064618 | 1 | 94 | 8.0 | 11.3 | 0.00 | 0.00 | 0.00 | 62 | 1009.6 |
| 20260507063717 | 0 | 88 | 8.0 | 11.3 | 0.00 | 0.00 | 0.00 | 63 | 1009.6 |
| 20260507062817 | 0 | 83 | 8.0 | 11.3 | 0.00 | 0.00 | 0.00 | 62 | 1009.6 |
| 20260507061917 | 1 | 91 | 9.7 | 11.3 | 0.00 | 0.00 | 0.00 | 62 | 1009.6 |
| 20260507061038 | 1 | 93 | 9.7 | 12.9 | 0.00 | 0.00 | 0.00 | 62 | 1009.6 |
| 20260507060117 | 1 | 89 | 8.0 | 11.3 | 0.00 | 0.00 | 0.00 | 61 | 1009.7 |
| 20260507055517 | 1 | 85 | 9.7 | 12.9 | 0.00 | 0.00 | 0.00 | 61 | 1009.7 |
| 20260507054617 | 1 | 89 | 8.0 | 9.7 | 0.00 | 0.00 | 0.00 | 61 | 1009.7 |
| 20260507053738 | 1 | 58 | 8.0 | 11.3 | 0.00 | 0.00 | 0.00 | 60 | 1009.7 |
| 20260507052817 | 1 | 25 | 8.0 | 11.3 | 0.00 | 0.00 | 0.00 | 60 | 1009.8 |
| 20260507051917 | 1 | 1 | 6.4 | 9.7 | 0.00 | 0.00 | 0.00 | 59 | 1009.8 |
| 20260507051017 | 1 | 3 | 6.4 | 12.9 | 0.00 | 0.00 | 0.00 | 59 | 1010.0 |
| 20260507050117 | 1 | 2 | 8.0 | 12.9 | 0.00 | 0.00 | 0.00 | 58 | 1010.0 |
| 20260507045517 | 1 | 4 | 8.0 | 12.9 | 0.00 | 0.00 | 0.00 | 58 | 1010.0 |
| 20260507044617 | 2 | 1 | 6.4 | 12.9 | 0.00 | 0.00 | 0.00 | 57 | 1010.0 |
| 20260507043717 | 2 | 1 | 8.0 | 16.1 | 0.00 | 0.00 | 0.00 | 55 | 1010.1 |
| 20260507042817 | 2 | 1 | 8.0 | 16.1 | 0.00 | 0.00 | 0.00 | 54 | 1010.0 |
| 20260507041917 | 2 | 1 | 8.0 | 12.9 | 0.00 | 0.00 | 0.00 | 55 | 1010.1 |
| 20260507041017 | 2 | 1 | 6.4 | 8.0 | 0.00 | 0.00 | 0.00 | 53 | 1010.2 |
| 20260507040138 | 3 | 1 | 6.4 | 14.5 | 0.00 | 0.00 | 0.00 | 51 | 1010.2 |
| 20260507035517 | 3 | 1 | 6.4 | 14.5 | 0.00 | 0.00 | 0.00 | 50 | 1010.2 |
| 20260507034638 | 3 | 1 | 8.0 | 14.5 | 0.00 | 0.00 | 0.00 | 50 | 1010.3 |
| 20260507033717 | 3 | 1 | 6.4 | 9.7 | 0.00 | 0.00 | 0.00 | 49 | 1010.4 |
| 20260507032838 | 3 | 1 | 4.8 | 8.0 | 0.00 | 0.00 | 0.00 | 50 | 1010.4 |
| 20260507031917 | 3 | 1 | 4.8 | 8.0 | 0.00 | 0.00 | 0.00 | 49 | 1010.5 |
| 20260507031017 | 3 | 1 | 6.4 | 9.7 | 0.00 | 0.00 | 0.00 | 49 | 1010.5 |
| 20260507030117 | 3 | 1 | 6.4 | 9.7 | 0.00 | 0.00 | 0.00 | 50 | 1010.4 |
| 20260507025517 | 3 | 1 | 6.4 | 8.0 | 0.00 | 0.00 | 0.00 | 49 | 1010.4 |
| 20260507024617 | 3 | 1 | 6.4 | 9.7 | 0.00 | 0.00 | 0.00 | 50 | 1010.4 |
| 20260507023717 | 4 | 1 | 6.4 | 8.0 | 0.00 | 0.00 | 0.00 | 48 | 1010.4 |
| 20260507022817 | 4 | 40 | 6.4 | 9.7 | 0.00 | 0.00 | 0.00 | 48 | 1010.5 |
| 20260507021917 | 5 | 46 | 6.4 | 8.0 | 0.00 | 0.00 | 0.00 | 45 | 1010.5 |
| 20260507021017 | 6 | 38 | 4.8 | 8.0 | 0.00 | 0.00 | 0.00 | 44 | 1010.4 |
| 20260507020117 | 7 | 29 | 4.8 | 8.0 | 0.00 | 0.00 | 0.00 | 42 | 1010.4 |
| 20260507015517 | 7 | 27 | 3.2 | 8.0 | 0.00 | 0.00 | 0.00 | 41 | 1010.5 |
| 20260507014617 | 8 | 22 | 4.8 | 12.9 | 0.00 | 0.00 | 0.00 | 41 | 1010.5 |
| 20260507013717 | 8 | 8 | 6.4 | 12.9 | 0.00 | 0.00 | 0.00 | 41 | 1010.6 |
| 20260507012817 | 9 | 355 | 8.0 | 16.1 | 0.00 | 0.00 | 0.00 | 40 | 1010.5 |
| 20260507011917 | 10 | 2 | 11.3 | 16.1 | 0.00 | 0.00 | 0.00 | 39 | 1010.5 |
| 20260507011017 | 10 | 354 | 9.7 | 17.7 | 0.00 | 0.00 | 0.00 | 39 | 1010.5 |
| 20260507010117 | 10 | 346 | 11.3 | 19.3 | 0.00 | 0.00 | 0.00 | 36 | 1010.6 |
| 20260507005517 | 10 | 341 | 11.3 | 19.3 | 0.00 | 0.00 | 0.00 | 38 | 1010.6 |
| 20260507004617 | 10 | 359 | 11.3 | 22.5 | 0.00 | 0.00 | 0.00 | 38 | 1010.6 |
| 20260507003738 | 10 | 351 | 12.9 | 24.1 | 0.00 | 0.00 | 0.00 | 37 | 1010.7 |
| 20260507002817 | 10 | 330 | 14.5 | 24.1 | 0.00 | 0.00 | 0.00 | 37 | 1010.7 |
| 20260507001917 | 10 | 310 | 14.5 | 22.5 | 0.00 | 0.00 | 0.00 | 37 | 1010.7 |
| 20260507001017 | 10 | 310 | 14.5 | 27.4 | 0.00 | 0.00 | 0.00 | 38 | 1010.7 |
| 20260507000116 | 10 | 316 | 12.9 | 27.4 | 0.00 | 0.00 | 0.00 | 40 | 1010.7 |
| 20260506235517 | 8 | 313 | 12.9 | 22.5 | 0.00 | 0.00 | 0.00 | 38 | 1010.9 |
| 20260506234638 | 9 | 313 | 12.9 | 27.4 | 0.00 | 0.00 | 0.00 | 38 | 1011.0 |
| 20260506233717 | 9 | 329 | 16.1 | 27.4 | 0.00 | 0.00 | 0.00 | 36 | 1011.1 |
| 20260506232816 | 10 | 326 | 12.9 | 27.4 | 0.00 | 0.00 | 0.00 | 39 | 1011.1 |
| 20260506231917 | 10 | 317 | 16.1 | 30.6 | 0.00 | 0.00 | 0.00 | 39 | 1011.2 |
| 20260506231016 | 9 | 309 | 16.1 | 38.6 | 0.00 | 0.00 | 0.00 | 37 | 1011.2 |
| 20260506230116 | 9 | 296 | 19.3 | 38.6 | 0.00 | 0.00 | 0.00 | 38 | 1011.2 |
| 20260506225538 | 9 | 292 | 16.1 | 29.0 | 0.00 | 0.00 | 0.00 | 38 | 1011.2 |
| 20260506224617 | 10 | 288 | 16.1 | 29.0 | 0.00 | 0.00 | 0.00 | 36 | 1011.5 |
| 20260506223716 | 10 | 306 | 11.3 | 29.0 | 0.00 | 0.00 | 0.00 | 40 | 1011.4 |
| 20260506222817 | 10 | 313 | 16.1 | 25.7 | 0.00 | 0.00 | 0.00 | 39 | 1011.6 |
| 20260506221916 | 10 | 312 | 9.7 | 22.5 | 0.00 | 0.00 | 0.00 | 38 | 1011.6 |
| 20260506221016 | 9 | 317 | 14.5 | 29.0 | 0.00 | 0.00 | 0.00 | 45 | 1011.6 |
| 20260506220116 | 10 | 301 | 19.3 | 29.0 | 0.00 | 0.00 | 0.00 | 38 | 1011.7 |
| 20260506215516 | 10 | 287 | 16.1 | 29.0 | 0.00 | 0.00 | 0.00 | 39 | 1011.7 |
| 20260506214616 | 10 | 335 | 14.5 | 27.4 | 0.00 | 0.00 | 0.00 | 39 | 1011.9 |
| 20260506213716 | 9 | 298 | 14.5 | 32.2 | 0.00 | 0.00 | 0.00 | 41 | 1011.8 |
| 20260506212816 | 9 | 285 | 17.7 | 32.2 | 0.00 | 0.00 | 0.00 | 43 | 1012.1 |
| 20260506211937 | 9 | 288 | 16.1 | 24.1 | 0.00 | 0.00 | 0.00 | 43 | 1012.2 |
| 20260506211016 | 8 | 297 | 12.9 | 22.5 | 0.00 | 0.00 | 0.00 | 43 | 1012.4 |
| 20260506210116 | 8 | 306 | 14.5 | 22.5 | 0.00 | 0.00 | 0.00 | 43 | 1012.6 |
| 20260506205516 | 8 | 310 | 11.3 | 22.5 | 0.00 | 0.00 | 0.00 | 44 | 1012.6 |
| 20260506204616 | 8 | 311 | 12.9 | 29.0 | 0.00 | 0.00 | 0.00 | 45 | 1012.8 |
| 20260506203716 | 8 | 288 | 16.1 | 25.7 | 0.00 | 0.00 | 0.00 | 41 | 1012.8 |
| 20260506202816 | 10 | 337 | 14.5 | 30.6 | 0.00 | 0.00 | 0.00 | 43 | 1012.9 |
| 20260506201916 | 8 | 310 | 16.1 | 30.6 | 0.00 | 0.00 | 0.00 | 47 | 1013.0 |
| 20260506201016 | 7 | 295 | 12.9 | 25.7 | 0.00 | 0.00 | 0.00 | 46 | 1013.1 |
| 20260506200116 | 8 | 320 | 9.7 | 24.1 | 0.00 | 0.00 | 0.00 | 46 | 1013.2 |
| 20260506195516 | 7 | 322 | 11.3 | 24.1 | 0.00 | 0.00 | 0.00 | 50 | 1013.3 |
| 20260506194616 | 7 | 307 | 14.5 | 25.7 | 0.00 | 0.00 | 0.00 | 45 | 1013.4 |
| 20260506193737 | 8 | 343 | 11.3 | 22.5 | 0.00 | 0.00 | 0.00 | 52 | 1013.5 |
| 20260506192816 | 7 | 281 | 14.5 | 25.7 | 0.00 | 0.00 | 0.00 | 48 | 1013.7 |
| 20260506191916 | 7 | 304 | 11.3 | 25.7 | 0.00 | 0.00 | 0.00 | 47 | 1013.7 |
| 20260506191016 | 7 | 321 | 12.9 | 30.6 | 0.00 | 0.00 | 0.00 | 50 | 1013.9 |
| 20260506190137 | 8 | 325 | 12.9 | 30.6 | 0.00 | 0.00 | 0.00 | 49 | 1013.9 |
| 20260506185537 | 8 | 321 | 11.3 | 20.9 | 0.00 | 0.00 | 0.00 | 50 | 1013.9 |
| 20260506184616 | 7 | 320 | 14.5 | 25.7 | 0.00 | 0.00 | 0.00 | 52 | 1014.1 |
| 20260506183737 | 7 | 334 | 16.1 | 25.7 | 0.00 | 0.00 | 0.00 | 51 | 1014.4 |
| 20260506182837 | 7 | 321 | 12.9 | 25.7 | 0.00 | 0.00 | 0.00 | 48 | 1014.5 |
| 20260506181916 | 6 | 294 | 9.7 | 24.1 | 0.00 | 0.00 | 0.00 | 49 | 1014.6 |
| 20260506181037 | 6 | 279 | 14.5 | 24.1 | 0.00 | 0.00 | 0.00 | 53 | 1014.8 |
| 20260506180116 | 6 | 275 | 11.3 | 24.1 | 0.00 | 0.00 | 0.00 | 50 | 1014.8 |
| 20260506175516 | 6 | 291 | 12.9 | 24.1 | 0.00 | 0.00 | 0.00 | 52 | 1014.9 |
| 20260506174616 | 6 | 311 | 11.3 | 20.9 | 0.00 | 0.00 | 0.00 | 51 | 1015.0 |
| 20260506173716 | 5 | 288 | 9.7 | 24.1 | 0.00 | 0.00 | 0.00 | 52 | 1015.1 |
| 20260506172837 | 5 | 298 | 14.5 | 24.1 | 0.00 | 0.00 | 0.00 | 50 | 1015.3 |
| 20260506171937 | 5 | 298 | 12.9 | 24.1 | 0.00 | 0.00 | 0.00 | 51 | 1015.3 |
| 20260506171017 | 5 | 332 | 12.9 | 22.5 | 0.00 | 0.00 | 0.00 | 52 | 1015.4 |
| 20260506170116 | 5 | 326 | 9.7 | 19.3 | 0.00 | 0.00 | 0.00 | 54 | 1015.5 |
| 20260506165537 | 5 | 302 | 12.9 | 22.5 | 0.00 | 0.00 | 0.00 | 52 | 1015.6 |
| 20260506164616 | 5 | 326 | 9.7 | 20.9 | 0.00 | 0.00 | 0.00 | 53 | 1015.6 |
| 20260506163716 | 5 | 326 | 9.7 | 20.9 | 0.00 | 0.00 | 0.00 | 57 | 1015.7 |
| 20260506162816 | 5 | 307 | 6.4 | 20.9 | 0.00 | 0.00 | 0.00 | 54 | 1015.7 |
| 20260506161916 | 4 | 319 | 8.0 | 20.9 | 0.00 | 0.00 | 0.00 | 55 | 1015.9 |
| 20260506161016 | 4 | 292 | 9.7 | 17.7 | 0.00 | 0.00 | 0.00 | 55 | 1015.9 |
| 20260506160116 | 4 | 339 | 4.8 | 19.3 | 0.00 | 0.00 | 0.00 | 57 | 1015.9 |
| 20260506155516 | 3 | 322 | 8.0 | 19.3 | 0.00 | 0.00 | 0.00 | 55 | 1016.0 |
| 20260506154616 | 3 | 319 | 6.4 | 17.7 | 0.00 | 0.00 | 0.00 | 55 | 1015.9 |
| 20260506153737 | 3 | 299 | 8.0 | 17.7 | 0.00 | 0.00 | 0.00 | 55 | 1015.9 |
| 20260506152837 | 3 | 275 | 3.2 | 14.5 | 0.00 | 0.00 | 0.00 | 57 | 1016.0 |
| 20260506151915 | 3 | 296 | 4.8 | 20.9 | 0.00 | 0.00 | 0.00 | 58 | 1016.0 |
| 20260506151036 | 3 | 299 | 9.7 | 20.9 | 0.00 | 0.00 | 0.00 | 57 | 1016.2 |
| 20260506150115 | 3 | 299 | 9.7 | 20.9 | 0.00 | 0.00 | 0.00 | 57 | 1016.1 |
| 20260506145515 | 3 | 279 | 6.4 | 16.1 | 0.00 | 0.00 | 0.00 | 58 | 1016.2 |
| 20260506144636 | 2 | 247 | 4.8 | 16.1 | 0.00 | 0.00 | 0.00 | 61 | 1016.2 |
| 20260506143715 | 2 | 244 | 9.7 | 16.1 | 0.00 | 0.00 | 0.00 | 59 | 1016.3 |
| 20260506142816 | 1 | 246 | 9.7 | 14.5 | 0.00 | 0.00 | 0.00 | 62 | 1016.2 |
| 20260506141915 | 1 | 243 | 8.0 | 14.5 | 0.00 | 0.00 | 0.00 | 65 | 1016.3 |
| 20260506141016 | 1 | 249 | 4.8 | 11.3 | 0.00 | 0.00 | 0.00 | 67 | 1016.3 |
| 20260506140115 | 0 | 244 | 4.8 | 8.0 | 0.00 | 0.00 | 0.00 | 70 | 1016.3 |
| 20260506135515 | 0 | 251 | 4.8 | 8.0 | 0.00 | 0.00 | 0.00 | 71 | 1016.3 |